Flag for Germany Weather past 2 weeks in Berlin, Berlin, Germany

Now
46 °F

Cool.


Feels Like: 42 °F
Forecast: 49 / 51 °F
Wind: 7 mph from West

Location: Berlin-Tempelhof

Current Time: Dec 22, 2014 at 3:30:58 AM

Latest Report: Dec 22, 2014 at 3:00 AM


Visibility: N/A

Pressure: 29.90 "Hg

Humidity: 85%

Dew point: 42 °F

Location of BerlinLocation

Historic Weather in Berlin — Graph

°F

Berlin temperature yesterday

Maximum temperature yesterday: 44 °F (at 8:00 PM)
Minimum temperature yesterday: 39 °F (at 2:00 AM)
Average temperature yesterday: 42 °F

Past Weeks' High & Low Weather Summary

 TemperatureHumidityPressure
High54 °F (Dec 19, 7:00 AM)98% (Dec 7, 8:00 AM)30.40 "Hg (Dec 7, 8:00 AM)
Low29 °F (Dec 9, 5:00 AM)64% (Dec 20, 12:00 PM)29.38 "Hg (Dec 12, 7:00 PM)
Average41 °F85%29.91 "Hg
* Reported Dec 7 2:00 AM — Dec 22 2:00 AM, Berlin, Weather by CustomWeather, © 2014

Note: Actual official high and low records may vary slightly from our data, if they occured in-between our weather recording intervals... More about our weather records

Advertising

Berlin weather history for previous 24 hours

 ConditionsComfort  
Time TempWeatherWind HumidityBarometerVisibility
2:00 AM
Dec 22
44 °FQuite cool.7 mph92%29.92 "HgN/A
1:00 AM44 °FQuite cool.7 mph90%29.96 "HgN/A
12:00 AM45 °FQuite cool.8 mph84%29.98 "HgN/A
11:00 PM
Dec 21
44 °FQuite cool.7 mph84%30.01 "HgN/A
10:00 PM43 °FQuite cool.7 mph86%30.05 "HgN/A
9:00 PM44 °FQuite cool.8 mph81%30.07 "HgN/A
8:00 PM44 °FQuite cool.8 mph78%30.10 "HgN/A
7:00 PM44 °FQuite cool.7 mph81%30.12 "HgN/A
6:00 PM44 °FQuite cool.7 mph78%30.13 "HgN/A
5:00 PM43 °FQuite cool.6 mph85%30.16 "HgN/A
4:00 PM43 °FQuite cool.6 mph82%30.18 "HgN/A
3:00 PM44 °FQuite cool.8 mph77%30.20 "HgN/A
2:00 PM44 °FQuite cool.7 mph77%30.22 "HgN/A
1:00 PM43 °FQuite cool.7 mph80%30.23 "HgN/A
12:00 PM43 °FQuite cool.8 mph81%30.23 "HgN/A
11:00 AM42 °FQuite cool.7 mph83%30.24 "HgN/A
10:00 AM41 °FQuite cool.8 mph85%30.24 "HgN/A
9:00 AM41 °FQuite cool.8 mph84%30.22 "HgN/A
8:00 AM42 °FQuite cool.8 mph83%30.19 "HgN/A
7:00 AM42 °FQuite cool.7 mph83%30.16 "HgN/A
6:00 AM42 °FQuite cool.8 mph84%30.14 "HgN/A
5:00 AM41 °FQuite cool.8 mph85%30.11 "HgN/A
4:00 AM40 °FQuite cool.9 mph89%30.08 "HgN/A
3:00 AM40 °FChilly.8 mph90%30.04 "HgN/A
Weather by CustomWeather, © 2014

See weather overviewHow to use our weather pages